Weather observations for the past three days for
Salida - Monarch Pass
Imperial (Metric)
Date Time (mdt) Wind (mph) Vis. (mi.) Weather Sky Cond. Temperature (ºF) Relative Humidity Wind Chill (°F) Heat Index (°F) Pressure Precipitation (in)
Air Dwpt 6 hour altimeter (in) sea level (mb) 1 hr 3 hr 6 hr
Max. Min.
02 07:55 W 9 10.00 Fair CLR 24.8 15.8 69% 16 30.47 0.0
02 07:35 W 8 10.00 Fair CLR 23 15.8 74% 15 30.47 0.0
02 07:15 W 8 10.00 Fair CLR 23 14 68% 15 30.46 0.0
02 06:55 W 9 10.00 Fair CLR 23 14 68% 14 30.46 0.0
02 06:35 W 9 10.00 Fair CLR 23 14 68% 14 30.45 0.0
02 06:15 W 8 10.00 Fair CLR 23 12.2 63% 15 30.45 0.0
02 05:55 W 8 10.00 Fair CLR 23 12.2 63% 15 30.45 0.0
02 05:35 SW 5 10.00 Fair CLR 24.8 10.4 54% 20 30.45 0.0
02 05:15 Calm 10.00 Fair CLR 24.8 10.4 54% 30.45 0.0
02 04:55 E 6 0.00 Fair CLR 23 12.2 63% 17 30.45 0.0
02 04:35 E 7 0.00 Fair CLR 23 12.2 63% 16 30.45 0.0
02 04:15 E 7 0.00 Fair CLR 23 12.2 63% 16 30.45 0.0
02 03:55 E 9 0.00 Fair CLR 23 14 68% 14 30.44 0.0
02 03:35 E 8 0.00 Fair CLR 23 14 68% 15 30.44 0.0
02 03:15 E 7 0.00 Fair CLR 23 14 68% 16 30.44 0.0
02 02:55 E 6 0.00 Fair CLR 23 14 68% 17 30.44 0.0
02 02:35 S 5 0.00 NULL NULL 23 19.4 86% 18 30.44 0.0
02 02:15 SW 5 0.00 NULL NULL 21.2 21.2 100% 16 30.45 0.0
02 01:55 S 5 0.00 NULL NULL 21.2 21.2 100% 16 30.45 0.0
02 01:35 E 6 0.00 NULL NULL 23 21.2 93% 17 30.45 0.0
02 01:15 E 9 0.00 NULL NULL 23 21.2 93% 14 30.45 0.0
02 00:55 E 15 0.00 Overcast BKN005 BKN010 OVC050 23 23 100% 11 30.43 0.0
02 00:35 E 14 0.00 NULL NULL 23 23 100% 11 30.43 0.0
02 00:16 E 13 0.00 Mostly Cloudy BKN002 BKN050 23 23 100% 12 30.43 0.0
01 23:55 E 15 0.00 Overcast BKN002 OVC050 23 23 100% 11 30.43 0.0
01 23:35 E 18 0.00 Overcast BKN002 BKN006 OVC050 23 23 100% 10 30.42 0.0
01 23:16 E 18 0.00 Overcast OVC002 23 23 100% 10 30.42 0.0
01 22:55 E 21 0.00 Overcast and Breezy OVC001 23 23 100% 9 30.41 0.0
01 22:35 E 24 0.00 Overcast and Breezy BKN003 BKN006 OVC015 24.8 23 93% 10 30.41 0.0
01 22:15 E 23 0.00 Breezy NULL 24.8 23 93% 11 30.41 0.0
01 21:55 E 23 0.00 Overcast and Breezy BKN007 BKN014 OVC018 24.8 23 93% 11 30.41 0.0
01 21:35 E 24 0.00 Breezy NULL 24.8 23 93% 10 30.39 0.0
01 21:15 E 25 0.00 Breezy NULL 24.8 23 93% 10 30.39 0.0
01 20:55 E 26 G 32 0.00 Windy NULL 26.6 23 86% 12 30.37 0.0
01 20:35 E 25 0.00 Breezy NULL 26.6 21.2 80% 12 30.36 0.0
01 20:15 E 28 0.00 Mostly Cloudy and Windy SCT022 BKN031 BKN036 26.6 19.4 74% 12 30.36 0.0
01 19:55 E 23 0.00 Mostly Cloudy and Breezy SCT022 BKN032 BKN042 26.6 21.2 80% 13 30.36 0.0
01 19:15 E 29 G 38 0.00 Partly Cloudy and Windy SCT034 28.4 19.4 69% 14 30.32 0.0
01 18:55 E 31 0.00 Fair and Windy CLR 28.4 17.6 64% 13 30.31 0.0
01 18:35 E 32 0.00 Fair and Windy CLR 28.4 15.8 59% 13 30.3 0.0
01 18:15 E 25 G 31 0.00 Fair and Breezy CLR 28.4 14 55% 15 30.32 0.0
01 17:55 E 25 G 29 0.00 Fair and Breezy CLR 28.4 14 55% 15 30.32 0.0
01 17:35 E 25 G 32 0.00 Fair and Breezy CLR 28.4 14 55% 15 30.31 0.0
01 17:15 E 25 0.00 Fair and Breezy CLR 28.4 15.8 59% 15 30.31 0.0
01 16:55 E 24 G 33 0.00 Fair and Breezy CLR 28.4 19.4 69% 15 30.31 0.0
01 16:35 E 22 0.00 Fair and Breezy CLR 28.4 19.4 69% 16 30.31 0.0
01 16:15 E 24 0.00 Breezy NULL 26.6 24.8 93% 13 30.31 0.0
01 15:55 E 21 0.00 Breezy NULL 26.6 24.8 93% 14 30.31 0.0
01 15:35 E 23 0.00 Breezy NULL 26.6 24.8 93% 13 30.31 0.0
01 15:15 E 24 0.00 Breezy NULL 26.6 26.6 100% 13 30.32 0.0
01 14:55 E 21 0.00 Breezy NULL 26.6 26.6 100% 14 30.32 0.0
01 14:35 E 22 0.00 Breezy NULL 26.6 26.6 100% 13 30.32 0.0
01 14:15 E 23 0.00 Breezy NULL 26.6 26.6 100% 13 30.32 0.0
01 13:55 Calm 0.00 NULL NULL 24.8 24.8 100% 30.32 0.0
01 13:35 Calm 0.00 NULL NULL 26.6 26.6 100% 30.31 0.0
01 13:15 Calm 0.00 NULL NULL 24.8 24.8 100% 30.31 0.0
01 12:55 Calm 0.00 NULL NULL 24.8 24.8 100% 30.31 0.0
01 12:35 Calm 0.00 NULL NULL 24.8 24.8 100% 30.31 0.0
01 12:15 Calm 0.00 NULL NULL 23 23 100% 30.31 0.0
01 11:55 Calm 0.00 NULL NULL 24.8 23 93% 30.32 0.0
01 11:36 Calm 0.00 Overcast BKN002 OVC006 24.8 23 93% 30.32 0.0
01 11:15 Calm 0.00 Overcast BKN002 OVC006 23 23 100% 30.32 0.0
01 10:55 Calm 0.00 Overcast BKN002 OVC006 23 23 100% 30.31 0.0
01 10:35 Calm 0.00 Overcast BKN002 OVC005 23 23 100% 30.31 0.0
01 10:15 Calm 0.00 Overcast OVC002 23 23 100% 30.31 0.0
01 09:55 Calm 0.00 Overcast OVC002 23 23 100% 30.3 0.0
01 09:35 Calm 0.00 Overcast OVC002 23 23 100% 30.3 0.0
01 09:15 Calm 0.00 Overcast OVC002 23 21.2 93% 30.3 0.0
01 08:55 Calm 0.00 Overcast BKN002 OVC005 21.2 21.2 100% 30.29 0.0
01 08:35 Calm 0.00 Overcast OVC002 21.2 19.4 93% 30.28 0.0
01 08:15 Calm 0.00 Overcast OVC002 21.2 19.4 93% 30.28 0.0
01 07:55 Calm 0.00 Overcast OVC002 21.2 19.4 93% 30.28 0.0
01 07:35 Calm 0.00 Overcast OVC002 19.4 19.4 100% 30.27 0.0
01 07:15 Calm 0.00 Overcast OVC002 19.4 19.4 100% 30.27 0.0
01 06:55 Calm 0.00 Overcast OVC002 19.4 17.6 93% 30.27 0.0
01 06:35 Calm 0.00 Overcast OVC002 19.4 17.6 93% 30.26 0.0
01 06:15 Calm 0.00 Overcast OVC002 19.4 19.4 100% 30.26 0.0
01 05:55 Calm 0.00 Overcast OVC002 19.4 19.4 100% 30.25 0.0
01 05:35 Calm 0.00 Overcast OVC002 19.4 19.4 100% 30.25 0.0
01 05:15 Calm 0.00 Overcast OVC002 19.4 19.4 100% 30.25 0.0
01 04:55 Calm 0.00 Overcast OVC002 19.4 19.4 100% 30.25 0.0
01 04:35 Calm 0.00 Overcast OVC002 19.4 19.4 100% 30.25 0.0
01 04:15 Calm 0.00 Overcast OVC002 19.4 19.4 100% 30.25 0.0
01 03:55 Calm 0.00 Overcast OVC002 21.2 19.4 93% 30.25 0.0
01 03:35 Calm 0.00 Overcast OVC002 19.4 19.4 100% 30.25 0.0
01 03:15 E 23 0.00 Overcast and Breezy OVC002 21.2 19.4 93% 6 30.25 0.0
01 02:55 E 24 0.00 Overcast and Breezy OVC002 21.2 19.4 93% 5 30.25 0.0
01 02:35 E 23 0.00 Overcast and Breezy OVC002 21.2 19.4 93% 6 30.25 0.0
01 02:15 E 21 0.00 Overcast and Breezy OVC002 21.2 19.4 93% 7 30.26 0.0
01 01:55 E 22 0.00 Overcast and Breezy OVC002 21.2 19.4 93% 6 30.26 0.0
01 01:35 E 22 0.00 Overcast and Breezy OVC002 21.2 19.4 93% 6 30.26 0.0
01 01:15 Calm 0.00 Overcast OVC002 21.2 19.4 93% 30.27 0.0
01 00:55 E 24 0.00 Overcast and Breezy OVC002 21.2 19.4 93% 5 30.27 0.0
01 00:35 Calm 0.00 Overcast OVC002 21.2 21.2 100% 30.27 0.0
01 00:15 Calm 0.00 Overcast OVC002 21.2 21.2 100% 30.27 0.0
30 23:55 Calm 0.00 Overcast OVC002 21.2 21.2 100% 30.27 0.0
30 23:35 Calm 0.00 Overcast OVC002 21.2 21.2 100% 30.27 0.0
30 23:15 E 23 G 32 0.00 Overcast and Breezy OVC002 21.2 21.2 100% 6 30.27 0.0
30 22:55 E 22 G 25 0.00 Overcast and Breezy OVC002 21.2 21.2 100% 6 30.28 0.0
30 22:35 E 25 G 30 0.00 Overcast and Breezy OVC002 23 21.2 93% 8 30.27 0.0
30 22:15 E 23 0.00 Overcast and Breezy OVC002 23 21.2 93% 8 30.28 0.0
30 21:55 E 21 G 36 0.00 Overcast and Breezy OVC002 23 21.2 93% 9 30.28 0.0
30 21:35 Calm 0.00 Overcast OVC002 23 21.2 93% 30.26 0.0
30 21:15 Calm 0.00 Overcast OVC002 21.2 21.2 100% 30.26 0.0
30 20:55 Calm 0.00 Overcast OVC002 23 21.2 93% 30.24 0.0
30 20:35 Calm 0.00 Overcast OVC002 23 21.2 93% 30.25 0.0
30 20:15 Calm 0.00 Overcast OVC002 23 23 100% 30.25 0.0
30 19:55 Calm 0.00 Overcast OVC002 23 23 100% 30.24 0.0
30 19:35 Calm 0.00 Overcast OVC002 23 23 100% 30.23 0.0
30 19:15 Calm 0.00 Overcast OVC002 23 23 100% 30.23 0.0
30 18:55 Calm 0.00 Overcast OVC002 23 23 100% 30.22 0.0
30 18:35 Calm 0.00 Overcast OVC002 24.8 23 93% 30.23 0.0
30 18:15 Calm 0.00 Overcast OVC002 23 23 100% 30.23 0.0
30 17:55 Calm 0.00 Overcast OVC002 23 23 100% 30.22 0.0
30 17:35 Calm 0.00 Overcast OVC002 23 23 100% 30.21 0.0
30 17:15 Calm 0.00 Overcast OVC002 24.8 24.8 100% 30.2 0.0
30 16:55 Calm 0.15 Light Snow OVC002 24.8 24.8 100% 30.22 0.0
30 16:35 Calm 0.15 Freezing Fog OVC002 26.6 24.8 93% 30.22 0.0
30 16:15 Calm 0.15 Freezing Fog OVC002 26.6 26.6 100% 30.23 0.0
30 15:55 E 16 0.15 Freezing Fog OVC002 26.6 26.6 100% 15 30.22 0.0
30 15:35 E 12 0.15 Freezing Fog OVC002 26.6 26.6 100% 17 30.23 0.0
30 15:15 E 16 0.15 Freezing Fog OVC002 26.6 26.6 100% 15 30.23 0.0
30 14:55 E 10 0.15 Freezing Fog OVC002 28.4 28.4 100% 20 30.24 0.0
30 14:35 SE 5 0.15 Freezing Fog OVC002 28.4 28.4 100% 24 30.24 0.0
30 14:15 Calm 0.50 Freezing Fog BKN002 BKN020 OVC033 28.4 28.4 100% 30.24 0.0
30 13:55 NE 5 0.15 Freezing Fog OVC002 28.4 28.4 100% 24 30.24 0.0
30 13:35 N 7 7.00 Light Snow BKN004 BKN010 BKN022 30.2 30.2 100% 24 30.24 0.0
30 13:15 W 13 G 18 2.00 Light Snow OVC004 28.4 28.4 100% 19 30.25 0.0
30 12:55 W 16 G 20 1.25 Light Snow SCT004 BKN016 OVC022 26.6 26.6 100% 15 30.25 0.0
30 12:35 NW 12 10.00 Overcast SCT018 BKN024 OVC041 28.4 28.4 100% 19 30.25 0.0
30 12:15 N 5 10.00 Overcast SCT011 BKN024 OVC050 28.4 28.4 100% 24 30.26 0.0
30 11:55 NE 13 G 18 1.25 Light Snow BKN001 OVC008 28.4 28.4 100% 19 30.26 0.0
30 11:35 Calm 0.15 Freezing Fog OVC001 26.6 26.6 100% 30.26 0.0
30 11:15 E 12 0.15 Freezing Fog OVC001 26.6 26.6 100% 17 30.25 0.0
30 10:55 Calm 0.15 Light Snow OVC001 26.6 24.8 93% 30.25 0.0
30 10:35 E 8 0.15 Freezing Fog OVC001 26.6 26.6 100% 19 30.26 0.0
30 10:15 E 7 0.00 Overcast OVC001 26.6 26.6 100% 20 30.25 0.0
30 09:55 Calm 0.00 Overcast OVC001 26.6 26.6 100% 30.25 0.0
30 09:35 Calm 0.00 Overcast OVC001 24.8 24.8 100% 30.25 0.0
30 09:15 Calm 0.00 Overcast OVC001 24.8 24.8 100% 30.25 0.0
30 08:55 E 16 0.00 Overcast OVC001 24.8 24.8 100% 13 30.26 0.0
30 08:35 E 12 0.00 Overcast BKN001 OVC006 24.8 24.8 100% 15 30.26 0.0
30 08:15 SE 7 0.00 Overcast BKN001 OVC007 24.8 24.8 100% 18 30.27 0.0
30 07:55 E 8 0.00 Overcast OVC001 23 23 100% 15 30.28 0.0
30 07:35 E 9 0.00 Overcast OVC001 23 23 100% 14 30.27 0.0
30 07:15 E 14 0.00 Overcast OVC001 23 23 100% 11 30.26 0.0
30 06:35 E 13 0.15 Light Snow OVC001 23 23 100% 12 30.25 0.0
30 06:15 E 12 0.15 Freezing Fog OVC001 23 23 100% 13 30.25 0.0
30 05:55 E 10 0.15 Freezing Fog OVC001 23 23 100% 13 30.25 0.0
30 05:35 E 10 0.15 Freezing Fog OVC001 23 23 100% 13 30.26 0.0
30 05:15 E 8 0.25 Freezing Fog OVC001 23 23 100% 15 30.26 0.0
30 04:55 E 8 0.25 Freezing Fog OVC001 23 23 100% 15 30.27 0.0
30 04:35 E 7 0.50 Freezing Fog OVC001 23 23 100% 16 30.27 0.0
30 04:15 E 12 0.15 Freezing Fog OVC001 23 23 100% 13 30.27 0.0
30 03:55 E 10 0.15 Freezing Fog OVC001 23 23 100% 13 30.27 0.0
30 03:35 E 6 10.00 Fair CLR 23 21.2 93% 17 30.28 0.0
30 03:15 NE 5 10.00 Partly Cloudy SCT050 SCT075 SCT080 23 23 100% 18 30.28 0.0
30 02:55 NW 6 10.00 Overcast SCT009 BKN060 OVC075 23 23 100% 17 30.29 0.0
30 02:35 NW 7 3.00 Light Snow BKN009 BKN016 OVC044 24.8 24.8 100% 18 30.3 0.0
30 02:15 NW 7 7.00 Light Snow SCT011 BKN029 OVC085 24.8 24.8 100% 18 30.3 0.0
30 01:55 NW 6 10.00 Light Snow SCT015 BKN033 OVC060 24.8 24.8 100% 19 30.3 0.0
30 01:35 N 5 7.00 Light Snow SCT015 BKN032 OVC047 24.8 24.8 100% 20 30.31 0.0
30 01:15 N 6 10.00 Overcast SCT001 BKN049 OVC075 24.8 24.8 100% 19 30.31 0.0
30 00:55 N 3 0.25 Light Snow OVC001 26.6 26.6 100% 30.31 0.0
30 00:35 NE 5 0.15 Light Snow OVC001 26.6 26.6 100% 22 30.31 0.0
30 00:15 NE 6 0.25 Light Snow OVC001 26.6 26.6 100% 21 30.31 0.0
29 23:55 E 5 0.50 Light Snow BKN003 OVC014 26.6 26.6 100% 22 30.32 0.0
29 23:35 N 5 0.50 Light Snow BKN002 OVC008 26.6 26.6 100% 22 30.33 0.0
29 23:15 E 5 0.25 Freezing Fog OVC002 26.6 26.6 100% 22 30.33 0.0
29 22:55 E 7 0.15 Light Snow OVC002 26.6 26.6 100% 20 30.34 0.0
29 22:35 E 3 0.25 Light Snow OVC002 28.4 28.4 100% 30.34 0.0
29 22:15 E 5 0.15 Light Snow OVC002 28.4 28.4 100% 24 30.36 0.0
29 21:55 E 10 0.15 Snow OVC002 28.4 28.4 100% 20 30.35 0.0
29 21:35 E 14 0.50 Light Snow BKN002 BKN014 OVC035 28.4 26.6 93% 18 30.34 0.0
29 21:15 NE 9 10.00 Overcast SCT016 BKN038 OVC065 28.4 21.2 74% 20 30.34 0.0
29 20:55 N 7 7.00 Light Snow SCT014 BKN018 OVC033 28.4 21.2 74% 22 30.34 0.0
29 20:35 NE 8 10.00 Light Snow SCT023 BKN034 OVC041 30.2 19.4 64% 23 30.33 0.0
29 20:15 NW 14 G 21 10.00 Overcast SCT024 BKN041 OVC050 30.2 17.6 59% 21 30.32 0.0
29 19:55 N 8 10.00 Overcast BKN041 OVC050 32 15.8 51% 25 30.3 0.0
29 19:35 NW 10 G 23 10.00 Overcast SCT031 BKN041 OVC050 32 15.8 51% 24 30.3 0.0
29 19:15 N 16 10.00 Overcast SCT027 BKN044 OVC050 32 15.8 51% 22 30.3 0.0
29 18:55 NW 13 G 18 10.00 Overcast SCT039 BKN048 OVC060 32 14 47% 23 30.3 0.0
29 18:35 NW 16 G 29 10.00 Overcast SCT047 OVC050 33.8 14 44% 24 30.29 0.0
29 18:15 N 20 10.00 Overcast SCT049 SCT060 OVC075 33.8 12.2 41% 23 30.29 0.0
29 17:55 NW 23 G 38 10.00 Overcast and Breezy BKN060 OVC070 33.8 10.4 38% 22 30.28 0.0
29 17:35 NW 30 G 39 10.00 Mostly Cloudy and Windy SCT060 BKN070 35.6 10.4 35% 23 30.27 0.0
29 17:15 W 22 G 37 10.00 Overcast and Breezy BKN070 OVC090 37.4 8.6 30% 27 30.27 0.0
29 16:55 W 29 G 37 10.00 Overcast and Windy SCT050 BKN060 OVC085 35.6 10.4 35% 24 30.26 0.0
29 16:35 NW 23 G 36 10.00 Mostly Cloudy and Breezy BKN065 BKN070 35.6 8.6 32% 25 30.27 0.0
29 16:15 NW 32 G 37 10.00 Mostly Cloudy and Windy BKN065 BKN075 35.6 8.6 32% 23 30.27 0.0
29 15:55 NW 30 G 40 10.00 Mostly Cloudy and Windy BKN065 BKN075 35.6 10.4 35% 23 30.27 0.0
29 15:35 NW 28 G 36 10.00 Partly Cloudy and Windy SCT070 SCT075 35.6 8.6 32% 24 30.27 0.0
29 15:15 W 33 G 46 10.00 Partly Cloudy and Windy SCT050 35.6 10.4 35% 23 30.28 0.0
29 14:55 NW 29 G 40 10.00 Partly Cloudy and Windy SCT047 SCT060 SCT070 35.6 12.2 38% 24 30.28 0.0
29 14:35 NW 39 G 48 10.00 Mostly Cloudy and Windy SCT022 SCT042 BKN055 33.8 10.4 38% 19 30.28 0.0
29 14:15 W 15 G 45 10.00 Overcast SCT017 BKN060 OVC085 32 12.2 44% 22 30.29 0.0
29 13:55 NW 38 G 48 10.00 Mostly Cloudy and Windy SCT047 SCT060 BKN070 33.8 8.6 35% 19 30.28 0.0
29 13:35 NW 29 G 36 10.00 Mostly Cloudy and Windy BKN050 BKN065 33.8 12.2 41% 21 30.29 0.0
29 13:15 NW 32 G 39 10.00 Partly Cloudy and Windy SCT047 SCT055 SCT075 33.8 12.2 41% 20 30.29 0.0
29 12:55 NW 33 G 43 10.00 Mostly Cloudy and Windy SCT047 BKN065 BKN075 33.8 12.2 41% 20 30.29 0.0
29 12:35 W 23 G 36 10.00 Partly Cloudy and Breezy SCT047 SCT050 33.8 14 44% 22 30.3 0.0
29 12:15 NW 31 G 39 10.00 Partly Cloudy and Windy SCT044 SCT050 32 14 47% 18 30.3 0.0
29 11:55 NW 28 G 37 10.00 Partly Cloudy and Windy SCT044 33.8 14 44% 21 30.31 0.0
29 11:35 NW 23 G 31 10.00 Partly Cloudy and Breezy SCT050 SCT065 32 12.2 44% 20 30.32 0.0
29 11:15 NW 23 G 29 10.00 Mostly Cloudy and Breezy BKN045 BKN050 32 14 47% 20 30.32 0.0
29 10:55 W 18 G 29 10.00 Mostly Cloudy SCT043 SCT050 BKN065 32 14 47% 21 30.31 0.0
29 10:35 NW 26 G 36 10.00 Overcast and Windy SCT043 BKN060 OVC065 32 12.2 44% 19 30.32 0.0
29 10:15 W 21 G 32 10.00 Mostly Cloudy and Breezy BKN045 BKN060 BKN070 32 14 47% 21 30.32 0.0
29 09:55 W 16 G 23 10.00 Mostly Cloudy SCT045 BKN050 BKN070 30.2 14 51% 20 30.32 0.0
29 09:35 W 18 G 23 10.00 Mostly Cloudy SCT050 SCT070 BKN110 32 14 47% 21 30.33 0.0
29 09:15 W 14 G 21 10.00 Mostly Cloudy SCT085 BKN110 30.2 14 51% 21 30.32 0.0
29 08:55 W 14 10.00 Partly Cloudy SCT047 SCT060 SCT070 30.2 14 51% 21 30.33 0.0
29 08:35 W 13 G 21 10.00 Partly Cloudy SCT047 SCT060 SCT080 30.2 15.8 55% 21 30.33 0.0
Date Time (mdt) Wind (mph) Vis. (mi.) Weather Sky Cond. Air Dwpt Max. Min. Relative Humidity Wind Chill (°F) Heat Index (°F) altimeter (in) sea level (mb) 1 hr 3 hr 6 hr
6 hour
Temperature (ºF) Pressure Precipitation (in)